Time,TemperatureF,DewpointF,PressureIn,WindDirection,WindDirectionDegrees,WindSpeedMPH,WindSpeedGustMPH,Humidity,HourlyPrecipIn,Conditions,Clouds,dailyrainin,SoftwareType,DateUTC
2014-08-01 00:43:00,71.0,68.0,29.94,SSW,201,0.0,0.0,91,0.00,,,0.00,,2014-08-01 05:43:00,
2014-08-01 01:12:00,71.0,68.0,29.93,SSW,201,0.0,0.0,91,0.00,,,0.00,,2014-08-01 06:12:00,
2014-08-01 01:42:00,70.0,68.0,29.93,SSW,201,0.0,0.0,93,0.00,,,0.00,,2014-08-01 06:42:00,
2014-08-01 04:12:00,67.0,65.0,29.92,SSW,201,0.0,1.0,94,0.00,,,0.00,,2014-08-01 09:12:00,
2014-08-01 04:44:00,67.0,66.0,29.91,SSW,202,0.0,3.0,95,0.00,,,0.00,,2014-08-01 09:44:00,
2014-08-01 05:13:00,67.0,66.0,29.92,SSW,202,0.0,0.0,95,0.00,,,0.00,,2014-08-01 10:13:00,
2014-08-01 05:42:00,67.0,66.0,29.92,SSW,202,0.0,0.0,95,0.00,,,0.00,,2014-08-01 10:42:00,
2014-08-01 06:12:00,67.0,66.0,29.93,SSW,202,0.0,0.0,95,0.00,,,0.00,,2014-08-01 11:12:00,
2014-08-01 06:43:00,67.0,66.0,29.93,SSW,202,0.0,0.0,96,0.00,,,0.00,,2014-08-01 11:43:00,
2014-08-01 07:12:00,67.0,66.0,29.94,SSW,202,0.0,0.0,97,0.00,,,0.00,,2014-08-01 12:12:00,
2014-08-01 07:42:00,68.0,67.0,29.94,SSW,202,0.0,3.0,97,0.00,,,0.00,,2014-08-01 12:42:00,
2014-08-01 08:12:00,71.0,69.0,29.95,SSW,202,0.0,1.0,94,0.00,,,0.00,,2014-08-01 13:12:00,
2014-08-01 08:42:00,73.0,70.0,29.96,SSW,202,0.0,1.0,90,0.00,,,0.00,,2014-08-01 13:42:00,
2014-08-01 09:12:00,77.0,70.0,29.96,SSW,202,0.0,2.0,79,0.00,,,0.00,,2014-08-01 14:12:00,
2014-08-01 10:44:00,83.0,72.0,29.97,SW,236,0.0,2.0,70,0.00,,,0.00,,2014-08-01 15:44:00,
2014-08-01 11:17:00,84.0,73.0,29.97,SSW,205,0.0,3.0,70,0.00,,,0.00,,2014-08-01 16:17:00,
2014-08-01 11:43:00,83.0,72.0,29.96,SSW,205,0.0,2.0,70,0.00,,,0.00,,2014-08-01 16:43:00,
2014-08-01 12:13:00,85.0,71.0,29.96,South,169,0.0,3.0,63,0.00,,,0.00,,2014-08-01 17:13:00,
2014-08-01 13:42:00,88.0,69.0,29.95,SSE,168,1.0,5.0,54,0.00,,,0.00,,2014-08-01 18:42:00,
2014-08-01 13:52:00,88.0,69.0,29.95,SSE,168,1.0,5.0,54,0.00,,,0.00,,2014-08-01 18:52:00,
2014-08-01 14:12:00,87.0,69.0,29.95,SSE,159,1.0,6.0,56,0.00,,,0.00,,2014-08-01 19:12:00,
2014-08-01 14:42:00,86.0,69.0,29.94,SSW,200,1.0,9.0,57,0.00,,,0.00,,2014-08-01 19:42:00,
2014-08-01 15:12:00,86.0,71.0,29.93,ESE,114,0.0,5.0,61,0.00,,,0.00,,2014-08-01 20:12:00,
2014-08-01 16:12:00,85.0,70.0,29.92,SSW,198,1.0,5.0,62,0.00,,,0.00,,2014-08-01 21:12:00,
2014-08-01 16:44:00,85.0,71.0,29.92,SW,229,0.0,3.0,64,0.00,,,0.00,,2014-08-01 21:44:00,
2014-08-01 17:13:00,85.0,72.0,29.91,SSW,213,0.0,2.0,65,0.00,,,0.00,,2014-08-01 22:13:00,
2014-08-01 17:42:00,85.0,72.0,29.91,SSW,213,0.0,2.0,66,0.00,,,0.00,,2014-08-01 22:42:00,